Location: Garden of he Gods Recreation Area
(37.6010°N, 88.3780°W)
Time: 18:52:52
(UTC-05:00)

Envisat - Visible Passes

Search period start: 20 March 2019 00:00
Search period end: 30 March 2019 00:00
Orbit: 764 x 766 km, 98.2° (Epoch: 20 March)

Date Brightness Start Highest point End Pass type
(mag) Time Alt. Az. Time Alt. Az. Time Alt. Az.
20 Mar 3.7 19:52:21 10° S 19:57:19 57° W 20:02:21 10° NNW visible
21 Mar 6.0 20:57:32 10° WSW 21:00:00 14° W 21:02:28 10° WNW visible
22 Mar 4.9 20:18:28 10° SSW 20:22:57 31° W 20:27:28 10° NW visible
23 Mar 3.3 19:41:03 10° S 19:46:06 74° WSW 19:51:12 10° NNW visible
24 Mar 5.8 20:45:20 10° SW 20:48:40 18° W 20:52:02 10° NW visible
25 Mar 4.4 20:06:56 10° SSW 20:11:41 40° W 20:16:28 10° NNW visible
26 Mar 3.0 19:29:49 10° SSE 19:34:53 87° ENE 19:40:00 10° NNW visible
27 Mar 5.5 20:33:26 10° SW 20:37:22 22° W 20:41:19 10° NW visible
28 Mar 3.9 19:55:30 10° S 20:00:26 52° W 20:05:24 10° NNW visible
29 Mar 6.0 21:01:12 10° WSW 21:03:09 12° W 21:05:06 10° WNW visible
